Omak, WA

5:20 PM PDT on May 22, 2018 (GMT -0700)
Omak

Weather History for KOMK - May, 2014

Change the Weather History Date:

Sunday, May 18, 2014

  Actual Average Record
Temperature  
Mean Temperature 57 °F 59 °F  
Max Temperature 73 °F 73 °F 96 °F (2006)
Min Temperature 41 °F 45 °F 29 °F (2003)
Degree Days  
Heating Degree Days 8 7  
Month to date heating degree days 135 166  
Since 1 July heating degree days 6338 6205  
Cooling Degree Days 0 1  
Month to date cooling degree days 5 8  
Year to date cooling degree days 5 9  
Growing Degree Days 7 (Base 50)    
Moisture  
Dew Point 38 °F    
Average Humidity 56    
Maximum Humidity 89    
Minimum Humidity 23    
Precipitation  
Precipitation 0.00 in 0.04 in 0.97 in (1957)
Month to date precipitation 0.38 0.75  
Year to date precipitation 4.54 6.28  
Sea Level Pressure  
Sea Level Pressure 29.73 in    
Wind  
Wind Speed 7 mph (North)    
Max Wind Speed 16 mph    
Max Gust Speed 21 mph    
Visibility 10 miles    
Events      
T = Trace of Precipitation, MM = Missing Value Source: NWS Daily Summary

Daily Weather History Graph

Daily Weather History Graph

Search for Another Location

Airport or City:

Astronomy

May. 18, 2014 Rise Set
Actual Time 5:13 AM PDT 8:35 PM PDT
Civil Twilight 4:35 AM PDT 9:14 PM PDT
Nautical Twilight 3:45 AM PDT 10:04 PM PDT
Astronomical Twilight 2:40 AM PDT 11:11 PM PDT
Moon No Moon Rise 9:12 AM PDT (5/18)
Length of Visible Light 16h 38m
Length of Day
15h 22m
Waning Gibbous, 80% of the Moon is Illuminated
May 18
Waning Gibbous
May 21
Last Quarter
May 28
New
Jun 5
First Quarter
Jun 12
Full

Hourly Weather History & Observations

Time (PDT) Temp. Windchill Dew Point Humidity Pressure Visibility Wind Dir Wind Speed Gust Speed Precip Events Conditions
12:53 AM 46.0 °F 43.1 °F 41.0 °F 83% 29.79 in 10.0 mi NW 5.8 mph - N/A   Clear
1:53 AM 44.1 °F 40.8 °F 39.9 °F 85% 29.78 in 10.0 mi NW 5.8 mph - N/A   Clear
2:53 AM 44.1 °F 39.5 °F 39.9 °F 85% 29.78 in 10.0 mi North 8.1 mph - N/A   Clear
3:53 AM 43.0 °F 38.8 °F 39.9 °F 89% 29.78 in 10.0 mi North 6.9 mph - N/A   Clear
4:53 AM 41.0 °F 37.1 °F 37.9 °F 89% 29.78 in 10.0 mi NNW 5.8 mph - N/A   Clear
5:53 AM 43.0 °F 40.3 °F 39.0 °F 86% 29.78 in 10.0 mi NW 4.6 mph - N/A   Mostly Cloudy
6:53 AM 48.9 °F - 42.1 °F 77% 29.78 in 10.0 mi North 5.8 mph - N/A   Scattered Clouds
7:53 AM 52.0 °F - 42.1 °F 69% 29.77 in 10.0 mi North 5.8 mph - N/A   Partly Cloudy
8:53 AM 57.0 °F - 42.1 °F 57% 29.75 in 10.0 mi NNW 11.5 mph - N/A   Clear
9:53 AM 61.0 °F - 42.1 °F 50% 29.74 in 10.0 mi NNW 11.5 mph - N/A   Clear
10:53 AM 66.0 °F - 39.0 °F 37% 29.72 in 10.0 mi North 11.5 mph - N/A   Clear
11:53 AM 66.9 °F - 35.1 °F 31% 29.71 in 10.0 mi Variable 4.6 mph - N/A   Clear
12:53 PM 69.1 °F - 35.1 °F 29% 29.70 in 10.0 mi SSE 8.1 mph - N/A   Clear
1:53 PM 70.0 °F - 34.0 °F 27% 29.69 in 10.0 mi South 9.2 mph - N/A   Clear
2:53 PM 71.1 °F - 34.0 °F 26% 29.68 in 10.0 mi East 3.5 mph - N/A   Partly Cloudy
3:53 PM 72.0 °F - 34.0 °F 25% 29.67 in 10.0 mi Variable 4.6 mph 16.1 mph N/A   Scattered Clouds
4:53 PM 73.0 °F - 34.0 °F 24% 29.66 in 10.0 mi SSW 13.8 mph 18.4 mph N/A   Clear
5:53 PM 71.1 °F - 35.1 °F 27% 29.66 in 10.0 mi SSW 10.4 mph - N/A   Clear
6:53 PM 68.0 °F - 35.1 °F 30% 29.67 in 10.0 mi South 4.6 mph - N/A   Clear
7:53 PM 66.9 °F - 37.0 °F 33% 29.69 in 10.0 mi Calm Calm - N/A   Overcast
8:53 PM 63.0 °F - 37.9 °F 40% 29.70 in 10.0 mi East 3.5 mph - N/A   Partly Cloudy
9:53 PM 55.0 °F - 39.9 °F 57% 29.73 in 10.0 mi Calm Calm - N/A   Partly Cloudy
10:53 PM 60.1 °F - 39.9 °F 47% 29.73 in 10.0 mi North 13.8 mph - N/A   Clear
11:53 PM 57.9 °F - 41.0 °F 53% 29.75 in 10.0 mi North 11.5 mph - N/A   Clear